TimeCDT,TemperatureF,Dew PointF,Humidity,Sea Level PressureIn,VisibilityMPH,Wind Direction,Wind SpeedMPH,Gust SpeedMPH,PrecipitationIn,Events,Conditions,WindDirDegrees,DateUTC
12:52 AM,17.1,10.9,77,30.43,10.0,NW,6.9,-,N/A,,Clear,310,2013-03-26 05:52:00
1:52 AM,18.0,10.9,74,30.42,10.0,WNW,6.9,-,N/A,,Clear,290,2013-03-26 06:52:00
2:52 AM,15.1,9.0,77,30.42,10.0,SSW,4.6,-,N/A,,Clear,210,2013-03-26 07:52:00
3:52 AM,17.1,10.9,77,30.40,10.0,West,8.1,-,N/A,,Clear,280,2013-03-26 08:52:00
4:52 AM,14.0,9.0,80,30.39,10.0,WNW,5.8,-,N/A,,Clear,290,2013-03-26 09:52:00
5:52 AM,15.1,9.0,77,30.39,10.0,WSW,5.8,-,N/A,,Clear,250,2013-03-26 10:52:00
6:52 AM,15.1,8.1,74,30.40,10.0,SW,5.8,-,N/A,,Clear,220,2013-03-26 11:52:00
7:52 AM,14.0,8.1,77,30.42,8.0,SW,5.8,-,N/A,,Clear,220,2013-03-26 12:52:00
8:52 AM,21.0,14.0,74,30.42,9.0,WSW,4.6,-,N/A,,Clear,240,2013-03-26 13:52:00
9:52 AM,28.0,18.0,66,30.40,10.0,South,6.9,-,N/A,,Clear,190,2013-03-26 14:52:00
10:52 AM,34.0,16.0,48,30.38,10.0,South,10.4,-,N/A,,Clear,190,2013-03-26 15:52:00
11:52 AM,39.9,15.1,36,30.34,10.0,South,12.7,20.7,N/A,,Clear,170,2013-03-26 16:52:00
12:52 PM,44.1,17.1,34,30.30,10.0,South,16.1,25.3,N/A,,Clear,190,2013-03-26 17:52:00
1:52 PM,48.0,19.0,32,30.25,10.0,South,18.4,28.8,N/A,,Clear,180,2013-03-26 18:52:00
2:52 PM,52.0,19.0,27,30.22,10.0,South,25.3,34.5,N/A,,Clear,180,2013-03-26 19:52:00
3:52 PM,54.0,19.0,25,30.17,10.0,South,21.9,31.1,N/A,,Clear,180,2013-03-26 20:52:00
4:52 PM,57.0,18.0,22,30.12,10.0,South,20.7,28.8,N/A,,Clear,180,2013-03-26 21:52:00
5:52 PM,55.9,18.0,23,30.09,10.0,South,19.6,26.5,N/A,,Clear,180,2013-03-26 22:52:00
6:52 PM,53.1,18.0,25,30.09,10.0,SSE,23.0,-,N/A,,Clear,160,2013-03-26 23:52:00
7:52 PM,50.0,18.0,28,30.09,10.0,SSE,16.1,-,N/A,,Clear,160,2013-03-27 00:52:00
8:52 PM,46.9,19.0,33,30.09,10.0,SSE,20.7,26.5,N/A,,Clear,150,2013-03-27 01:52:00
9:52 PM,43.0,19.0,38,30.08,10.0,SSE,18.4,-,N/A,,Clear,150,2013-03-27 02:52:00
10:52 PM,42.1,19.9,41,30.08,10.0,SSE,18.4,27.6,N/A,,Clear,150,2013-03-27 03:52:00
11:52 PM,39.9,19.9,45,30.07,10.0,SSE,18.4,-,N/A,,Clear,150,2013-03-27 04:52:00